Hlavní strana
METAR-TAF:

METAR-TAF

Letiště :

Kokomo Municipal Airport

Kokomo, Indiana, Spojené státy americké

zeměpisná šířka: 40-32N, zeměpisná délka: 086-04W, výška: 253 m

Aktuální stav počasí

Zpráva byla vytvořena před 11 minutami, v 11:56 UTC
Bezvětří
Teplota -7°C
Vlhkost vzduchu 86%
Tlak 1030 hPa
Viditelnost: 16.1 km
Jasno

METAR: KOKK 071156Z AUTO 00000KT 10SM CLR M07/M09 A3041 RMK AO2 SLP309 T10721089 11022 21072 51018 FZRANO

Čas: 07:07 (12:07 UTC)


TAF: chybějící

Stav a předpovědi počasí z více než 4 000 letišť (zprávy METAR a TAF).

Červené a žluté tečky na mapě představují dostupné meteorologické stanice.

Když kurzor umístíte na tečku, zobrazí se název stanice.

Pak kliknutím zobrazíte stav a předpověď počasí.

Chcete-li změnit mapu, kliknutím na zelené tlačítko se znaménkem +mapu přiblížíte, kliknutím na zelené tlačítko se znaménkem – mapu oddálíte a kliknutím na zelené šipky přejdete na sousední mapy.


METAR-TAF: